Year,Month,Day,Hour,Minute,Value (Times are PST for windgust in km/hr)
2011,03,02,00,00,9.60
2011,03,02,00,01,8.10
2011,03,02,00,02,9.60
2011,03,02,00,03,3.20
2011,03,02,00,04,4.80
2011,03,02,00,05,6.40
2011,03,02,00,06,6.40
2011,03,02,00,07,9.60
2011,03,02,00,08,8.10
2011,03,02,00,09,9.60
2011,03,02,00,10,6.40
2011,03,02,00,11,3.20
2011,03,02,00,12,6.40
2011,03,02,00,13,9.60
2011,03,02,00,14,6.40
2011,03,02,00,15,8.10
2011,03,02,00,16,9.60
2011,03,02,00,17,11.30
2011,03,02,00,18,6.40
2011,03,02,00,19,6.40
2011,03,02,00,20,6.40
2011,03,02,00,21,6.40
2011,03,02,00,22,8.10
2011,03,02,00,23,6.40
2011,03,02,00,24,9.60
2011,03,02,00,25,9.60
2011,03,02,00,26,8.10
2011,03,02,00,27,11.30
2011,03,02,00,28,9.60
2011,03,02,00,29,9.60
2011,03,02,00,30,8.10
2011,03,02,00,31,8.10
2011,03,02,00,32,8.10
2011,03,02,00,33,9.60
2011,03,02,00,34,8.10
2011,03,02,00,35,8.10
2011,03,02,00,36,9.60
2011,03,02,00,37,11.30
2011,03,02,00,38,9.60
2011,03,02,00,39,9.60
2011,03,02,00,40,9.60
2011,03,02,00,41,8.10
2011,03,02,00,42,12.90
2011,03,02,00,43,9.60
2011,03,02,00,44,9.60
2011,03,02,00,45,8.10
2011,03,02,00,46,9.60
2011,03,02,00,47,14.50
2011,03,02,00,48,9.60
2011,03,02,00,49,9.60
2011,03,02,00,50,11.30
2011,03,02,00,51,4.80
2011,03,02,00,52,6.40
2011,03,02,00,53,8.10
2011,03,02,00,54,6.40
2011,03,02,00,55,9.60
2011,03,02,00,56,4.80
2011,03,02,00,57,6.40
2011,03,02,00,58,6.40
2011,03,02,00,59,6.40
2011,03,02,01,00,4.80
2011,03,02,01,01,9.60
2011,03,02,01,02,9.60
2011,03,02,01,03,6.40
2011,03,02,01,04,9.60
2011,03,02,01,05,9.60
2011,03,02,01,06,11.30
2011,03,02,01,07,8.10
2011,03,02,01,08,16.10
2011,03,02,01,09,9.60
2011,03,02,01,10,11.30
2011,03,02,01,11,12.90
2011,03,02,01,12,9.60
2011,03,02,01,13,12.90
2011,03,02,01,14,8.10
2011,03,02,01,15,17.70
2011,03,02,01,16,6.40
2011,03,02,01,17,6.40
2011,03,02,01,18,9.60
2011,03,02,01,19,4.80
2011,03,02,01,20,8.10
2011,03,02,01,21,6.40
2011,03,02,01,22,11.30
2011,03,02,01,23,4.80
2011,03,02,01,24,9.60
2011,03,02,01,25,4.80
2011,03,02,01,26,6.40
2011,03,02,01,27,8.10
2011,03,02,01,28,8.10
2011,03,02,01,29,8.10
2011,03,02,01,30,9.60
2011,03,02,01,31,9.60
2011,03,02,01,32,9.60
2011,03,02,01,33,6.40
2011,03,02,01,34,6.40
2011,03,02,01,35,6.40
2011,03,02,01,36,8.10
2011,03,02,01,37,14.50
2011,03,02,01,38,4.80
2011,03,02,01,39,6.40
2011,03,02,01,40,8.10
2011,03,02,01,41,6.40
2011,03,02,01,42,4.80
2011,03,02,01,43,3.20
2011,03,02,01,44,8.10
2011,03,02,01,45,3.20
2011,03,02,01,46,3.20
2011,03,02,01,47,4.80
2011,03,02,01,48,6.40
2011,03,02,01,49,8.10
2011,03,02,01,50,8.10
2011,03,02,01,51,8.10
2011,03,02,01,52,8.10
2011,03,02,01,53,6.40
2011,03,02,01,54,14.50
2011,03,02,01,55,9.60
2011,03,02,01,56,9.60
2011,03,02,01,57,6.40
2011,03,02,01,58,4.80
2011,03,02,01,59,4.80
2011,03,02,02,00,4.80
2011,03,02,02,01,4.80
2011,03,02,02,02,4.80
2011,03,02,02,03,6.40
2011,03,02,02,04,6.40
2011,03,02,02,05,8.10
2011,03,02,02,06,9.60
2011,03,02,02,07,8.10
2011,03,02,02,08,4.80
2011,03,02,02,09,6.40
2011,03,02,02,10,3.20
2011,03,02,02,11,6.40
2011,03,02,02,12,9.60
2011,03,02,02,13,8.10
2011,03,02,02,14,8.10
2011,03,02,02,15,8.10
2011,03,02,02,16,9.60
2011,03,02,02,17,8.10
2011,03,02,02,18,11.30
2011,03,02,02,19,8.10
2011,03,02,02,20,11.30
2011,03,02,02,21,11.30
2011,03,02,02,22,9.60
2011,03,02,02,23,11.30
2011,03,02,02,24,6.40
2011,03,02,02,25,6.40
2011,03,02,02,26,8.10
2011,03,02,02,27,8.10
2011,03,02,02,28,6.40
2011,03,02,02,29,4.80
2011,03,02,02,30,6.40
2011,03,02,02,31,9.60
2011,03,02,02,32,8.10
2011,03,02,02,33,8.10
2011,03,02,02,34,9.60
2011,03,02,02,35,6.40
2011,03,02,02,36,3.20
2011,03,02,02,37,6.40
2011,03,02,02,38,9.60
2011,03,02,02,39,12.90
2011,03,02,02,40,16.10
2011,03,02,02,41,12.90
2011,03,02,02,42,14.50
2011,03,02,02,43,11.30
2011,03,02,02,44,12.90
2011,03,02,02,45,12.90
2011,03,02,02,46,4.80
2011,03,02,02,47,6.40
2011,03,02,02,48,6.40
2011,03,02,02,49,6.40
2011,03,02,02,50,8.10
2011,03,02,02,51,4.80
2011,03,02,02,52,11.30
2011,03,02,02,53,6.40
2011,03,02,02,54,8.10
2011,03,02,02,55,4.80
2011,03,02,02,56,4.80
2011,03,02,02,57,9.60
2011,03,02,02,58,11.30
2011,03,02,02,59,8.10
2011,03,02,03,00,6.40
2011,03,02,03,01,11.30
2011,03,02,03,02,9.60
2011,03,02,03,03,9.60
2011,03,02,03,04,9.60
2011,03,02,03,05,8.10
2011,03,02,03,06,11.30
2011,03,02,03,07,11.30
2011,03,02,03,08,12.90
2011,03,02,03,09,11.30
2011,03,02,03,10,8.10
2011,03,02,03,11,6.40
2011,03,02,03,12,14.50
2011,03,02,03,13,9.60
2011,03,02,03,14,6.40
2011,03,02,03,15,3.20
2011,03,02,03,16,6.40
2011,03,02,03,17,6.40
2011,03,02,03,18,4.80
2011,03,02,03,19,6.40
2011,03,02,03,20,6.40
2011,03,02,03,21,6.40
2011,03,02,03,22,11.30
2011,03,02,03,23,8.10
2011,03,02,03,24,4.80
2011,03,02,03,25,4.80
2011,03,02,03,26,6.40
2011,03,02,03,27,4.80
2011,03,02,03,28,4.80
2011,03,02,03,29,6.40
2011,03,02,03,30,4.80
2011,03,02,03,31,3.20
2011,03,02,03,32,6.40
2011,03,02,03,33,8.10
2011,03,02,03,34,9.60
2011,03,02,03,35,9.60
2011,03,02,03,36,9.60
2011,03,02,03,37,8.10
2011,03,02,03,38,6.40
2011,03,02,03,39,4.80
2011,03,02,03,40,8.10
2011,03,02,03,41,9.60
2011,03,02,03,42,8.10
2011,03,02,03,43,8.10
2011,03,02,03,44,9.60
2011,03,02,03,45,6.40
2011,03,02,03,46,4.80
2011,03,02,03,47,11.30
2011,03,02,03,48,11.30
2011,03,02,03,49,9.60
2011,03,02,03,50,8.10
2011,03,02,03,51,4.80
2011,03,02,03,52,4.80
2011,03,02,03,53,3.20
2011,03,02,03,54,4.80
2011,03,02,03,55,8.10
2011,03,02,03,56,4.80
2011,03,02,03,57,6.40
2011,03,02,03,58,8.10
2011,03,02,03,59,9.60
2011,03,02,04,00,11.30
2011,03,02,04,01,11.30
2011,03,02,04,02,14.50
2011,03,02,04,03,8.10
2011,03,02,04,04,9.60
2011,03,02,04,05,6.40
2011,03,02,04,06,12.90
2011,03,02,04,07,11.30
2011,03,02,04,08,16.10
2011,03,02,04,09,14.50
2011,03,02,04,10,20.90
2011,03,02,04,11,11.30
2011,03,02,04,12,11.30
2011,03,02,04,13,9.60
2011,03,02,04,14,9.60
2011,03,02,04,15,12.90
2011,03,02,04,16,19.30
2011,03,02,04,17,24.20
2011,03,02,04,18,17.70
2011,03,02,04,19,12.90
2011,03,02,04,20,17.70
2011,03,02,04,21,8.10
2011,03,02,04,22,11.30
2011,03,02,04,23,11.30
2011,03,02,04,24,11.30
2011,03,02,04,25,6.40
2011,03,02,04,26,11.30
2011,03,02,04,27,11.30
2011,03,02,04,28,11.30
2011,03,02,04,29,11.30
2011,03,02,04,30,6.40
2011,03,02,04,31,8.10
2011,03,02,04,32,3.20
2011,03,02,04,33,9.60
2011,03,02,04,34,9.60
2011,03,02,04,35,9.60
2011,03,02,04,36,8.10
2011,03,02,04,37,3.20
2011,03,02,04,38,4.80
2011,03,02,04,39,4.80
2011,03,02,04,40,3.20
2011,03,02,04,41,8.10
2011,03,02,04,42,12.90
2011,03,02,04,43,9.60
2011,03,02,04,44,6.40
2011,03,02,04,45,4.80
2011,03,02,04,46,6.40
2011,03,02,04,47,4.80
2011,03,02,04,48,12.90
2011,03,02,04,49,16.10
2011,03,02,04,50,12.90
2011,03,02,04,51,12.90
2011,03,02,04,52,14.50
2011,03,02,04,53,20.90
2011,03,02,04,54,27.40
2011,03,02,04,55,33.80
2011,03,02,04,56,24.20
2011,03,02,04,57,19.30
2011,03,02,04,58,17.70
2011,03,02,04,59,25.70
2011,03,02,05,00,32.20
2011,03,02,05,01,30.60
2011,03,02,05,02,29.00
2011,03,02,05,03,33.80
2011,03,02,05,04,43.50
2011,03,02,05,05,33.80
2011,03,02,05,06,32.20
2011,03,02,05,07,14.50
2011,03,02,05,08,22.50
2011,03,02,05,09,20.90
2011,03,02,05,10,32.20
2011,03,02,05,11,19.30
2011,03,02,05,12,38.60
2011,03,02,05,13,24.20
2011,03,02,05,14,25.70
2011,03,02,05,15,16.10
2011,03,02,05,16,25.70
2011,03,02,05,17,37.00
2011,03,02,05,18,30.60
2011,03,02,05,19,19.30
2011,03,02,05,20,24.20
2011,03,02,05,21,29.00
2011,03,02,05,22,27.40
2011,03,02,05,23,27.40
2011,03,02,05,24,27.40
2011,03,02,05,25,33.80
2011,03,02,05,26,37.00
2011,03,02,05,27,25.70
2011,03,02,05,28,35.40
2011,03,02,05,29,27.40
2011,03,02,05,30,33.80
2011,03,02,05,31,17.70
2011,03,02,05,32,25.70
2011,03,02,05,33,14.50
2011,03,02,05,34,24.20
2011,03,02,05,35,22.50
2011,03,02,05,36,22.50
2011,03,02,05,37,33.80
2011,03,02,05,38,25.70
2011,03,02,05,39,40.20
2011,03,02,05,40,38.60
2011,03,02,05,41,40.20
2011,03,02,05,42,30.60
2011,03,02,05,43,25.70
2011,03,02,05,44,38.60
2011,03,02,05,45,40.20
2011,03,02,05,46,22.50
2011,03,02,05,47,17.70
2011,03,02,05,48,19.30
2011,03,02,05,49,25.70
2011,03,02,05,50,20.90
2011,03,02,05,51,19.30
2011,03,02,05,52,25.70
2011,03,02,05,53,27.40
2011,03,02,05,54,48.30
2011,03,02,05,55,35.40
2011,03,02,05,56,25.70
2011,03,02,05,57,30.60
2011,03,02,05,58,30.60
2011,03,02,05,59,27.40
2011,03,02,06,00,20.90
2011,03,02,06,01,22.50
2011,03,02,06,02,49.90
2011,03,02,06,03,20.90
2011,03,02,06,04,20.90
2011,03,02,06,05,25.70
2011,03,02,06,06,22.50
2011,03,02,06,07,30.60
2011,03,02,06,08,22.50
2011,03,02,06,09,35.40
2011,03,02,06,10,12.90
2011,03,02,06,11,19.30
2011,03,02,06,12,20.90
2011,03,02,06,13,24.20
2011,03,02,06,14,20.90
2011,03,02,06,15,25.70
2011,03,02,06,16,22.50
2011,03,02,06,17,17.70
2011,03,02,06,18,19.30
2011,03,02,06,19,22.50
2011,03,02,06,20,30.60
2011,03,02,06,21,30.60
2011,03,02,06,22,20.90
2011,03,02,06,23,25.70
2011,03,02,06,24,29.00
2011,03,02,06,25,19.30
2011,03,02,06,26,29.00
2011,03,02,06,27,29.00
2011,03,02,06,28,29.00
2011,03,02,06,29,29.00
2011,03,02,06,30,22.50
2011,03,02,06,31,14.50
2011,03,02,06,32,8.10
2011,03,02,06,33,20.90
2011,03,02,06,34,24.20
2011,03,02,06,35,14.50
2011,03,02,06,36,14.50
2011,03,02,06,37,22.50
2011,03,02,06,38,27.40
2011,03,02,06,39,40.20
2011,03,02,06,40,33.80
2011,03,02,06,41,37.00
2011,03,02,06,42,29.00
2011,03,02,06,43,32.20
2011,03,02,06,44,24.20
2011,03,02,06,45,25.70
2011,03,02,06,46,41.80
2011,03,02,06,47,29.00
2011,03,02,06,48,20.90
2011,03,02,06,49,17.70
2011,03,02,06,50,30.60
2011,03,02,06,51,24.20
2011,03,02,06,52,25.70
2011,03,02,06,53,24.20
2011,03,02,06,54,17.70
2011,03,02,06,55,22.50
2011,03,02,06,56,29.00
2011,03,02,06,57,24.20
2011,03,02,06,58,24.20
2011,03,02,06,59,38.60
2011,03,02,07,00,32.20
2011,03,02,07,01,37.00
2011,03,02,07,02,20.90
2011,03,02,07,03,20.90
2011,03,02,07,04,29.00
2011,03,02,07,05,29.00
2011,03,02,07,06,38.60
2011,03,02,07,07,24.20
2011,03,02,07,08,24.20
2011,03,02,07,09,30.60
2011,03,02,07,10,30.60
2011,03,02,07,11,33.80
2011,03,02,07,12,30.60
2011,03,02,07,13,29.00
2011,03,02,07,14,27.40
2011,03,02,07,15,24.20
2011,03,02,07,16,27.40
2011,03,02,07,17,19.30
2011,03,02,07,18,19.30
2011,03,02,07,19,29.00
2011,03,02,07,20,30.60
2011,03,02,07,21,29.00
2011,03,02,07,22,30.60
2011,03,02,07,23,30.60
2011,03,02,07,24,16.10
2011,03,02,07,25,19.30
2011,03,02,07,26,33.80
2011,03,02,07,27,14.50
2011,03,02,07,28,27.40
2011,03,02,07,29,30.60
2011,03,02,07,30,29.00
2011,03,02,07,31,20.90
2011,03,02,07,32,27.40
2011,03,02,07,33,16.10
2011,03,02,07,34,27.40
2011,03,02,07,35,32.20
2011,03,02,07,36,32.20
2011,03,02,07,37,16.10
2011,03,02,07,38,27.40
2011,03,02,07,39,19.30
2011,03,02,07,40,27.40
2011,03,02,07,41,27.40
2011,03,02,07,42,35.40
2011,03,02,07,43,24.20
2011,03,02,07,44,20.90
2011,03,02,07,45,24.20
2011,03,02,07,46,29.00
2011,03,02,07,47,33.80
2011,03,02,07,48,30.60
2011,03,02,07,49,27.40
2011,03,02,07,50,22.50
2011,03,02,07,51,20.90
2011,03,02,07,52,41.80
2011,03,02,07,53,24.20
2011,03,02,07,54,25.70
2011,03,02,07,55,33.80
2011,03,02,07,56,33.80
2011,03,02,07,57,25.70
2011,03,02,07,58,24.20
2011,03,02,07,59,29.00
2011,03,02,08,00,30.60
2011,03,02,08,01,22.50
2011,03,02,08,02,35.40
2011,03,02,08,03,27.40
2011,03,02,08,04,32.20
2011,03,02,08,05,20.90
2011,03,02,08,06,19.30
2011,03,02,08,07,14.50
2011,03,02,08,08,14.50
2011,03,02,08,09,30.60
2011,03,02,08,10,33.80
2011,03,02,08,11,22.50
2011,03,02,08,12,19.30
2011,03,02,08,13,16.10
2011,03,02,08,14,27.40
2011,03,02,08,15,32.20
2011,03,02,08,16,12.90
2011,03,02,08,17,11.30
2011,03,02,08,18,14.50
2011,03,02,08,19,11.30
2011,03,02,08,20,6.40
2011,03,02,08,21,6.40
2011,03,02,08,22,6.40
2011,03,02,08,23,6.40
2011,03,02,08,24,4.80
2011,03,02,08,25,6.40
2011,03,02,08,26,6.40
2011,03,02,08,27,4.80
2011,03,02,08,28,6.40
2011,03,02,08,29,6.40
2011,03,02,08,30,11.30
2011,03,02,08,31,12.90
2011,03,02,08,32,4.80
2011,03,02,08,33,3.20
2011,03,02,08,34,1.60
2011,03,02,08,35,3.20
2011,03,02,08,36,4.80
2011,03,02,08,37,3.20
2011,03,02,08,38,3.20
2011,03,02,08,39,3.20
2011,03,02,08,40,3.20
2011,03,02,08,41,1.60
2011,03,02,08,42,4.80
2011,03,02,08,43,3.20
2011,03,02,08,44,3.20
2011,03,02,08,45,1.60
2011,03,02,08,46,1.60
2011,03,02,08,47,3.20
2011,03,02,08,48,3.20
2011,03,02,08,49,3.20
2011,03,02,08,50,3.20
2011,03,02,08,51,3.20
2011,03,02,08,52,4.80
2011,03,02,08,53,6.40
2011,03,02,08,54,4.80
2011,03,02,08,55,6.40
2011,03,02,08,56,6.40
2011,03,02,08,57,4.80
2011,03,02,08,58,3.20
2011,03,02,08,59,11.30
2011,03,02,09,00,4.80
2011,03,02,09,01,3.20
2011,03,02,09,02,9.60
2011,03,02,09,03,6.40
2011,03,02,09,04,9.60
2011,03,02,09,05,8.10
2011,03,02,09,06,6.40
2011,03,02,09,07,8.10
2011,03,02,09,08,6.40
2011,03,02,09,09,4.80
2011,03,02,09,10,8.10
2011,03,02,09,11,8.10
2011,03,02,09,12,8.10
2011,03,02,09,13,6.40
2011,03,02,09,14,9.60
2011,03,02,09,15,8.10
2011,03,02,09,16,6.40
2011,03,02,09,17,4.80
2011,03,02,09,18,4.80
2011,03,02,09,19,4.80
2011,03,02,09,20,4.80
2011,03,02,09,21,4.80
2011,03,02,09,22,4.80
2011,03,02,09,23,4.80
2011,03,02,09,24,6.40
2011,03,02,09,25,6.40
2011,03,02,09,26,8.10
2011,03,02,09,27,9.60
2011,03,02,09,28,6.40
2011,03,02,09,29,4.80
2011,03,02,09,30,17.70
2011,03,02,09,31,19.30
2011,03,02,09,32,8.10
2011,03,02,09,33,8.10
2011,03,02,09,34,6.40
2011,03,02,09,35,6.40
2011,03,02,09,36,4.80
2011,03,02,09,37,8.10
2011,03,02,09,38,4.80
2011,03,02,09,39,12.90
2011,03,02,09,40,14.50
2011,03,02,09,41,14.50
2011,03,02,09,42,4.80
2011,03,02,09,43,14.50
2011,03,02,09,44,14.50
2011,03,02,09,45,9.60
2011,03,02,09,46,8.10
2011,03,02,09,47,11.30
2011,03,02,09,48,8.10
2011,03,02,09,49,12.90
2011,03,02,09,50,8.10
2011,03,02,09,51,9.60
2011,03,02,09,52,6.40
2011,03,02,09,53,11.30
2011,03,02,09,54,9.60
2011,03,02,09,55,4.80
2011,03,02,09,56,14.50
2011,03,02,09,57,35.40
2011,03,02,09,58,11.30
2011,03,02,09,59,9.60
2011,03,02,10,00,4.80
2011,03,02,10,01,6.40
2011,03,02,10,02,12.90
2011,03,02,10,03,9.60
2011,03,02,10,04,6.40
2011,03,02,10,05,6.40
2011,03,02,10,06,6.40
2011,03,02,10,07,6.40
2011,03,02,10,08,11.30
2011,03,02,10,09,12.90
2011,03,02,10,10,6.40
2011,03,02,10,11,22.50
2011,03,02,10,12,19.30
2011,03,02,10,13,8.10
2011,03,02,10,14,8.10
2011,03,02,10,15,16.10
2011,03,02,10,16,8.10
2011,03,02,10,17,3.20
2011,03,02,10,18,6.40
2011,03,02,10,19,12.90
2011,03,02,10,20,6.40
2011,03,02,10,21,12.90
2011,03,02,10,22,4.80
2011,03,02,10,23,12.90
2011,03,02,10,24,16.10
2011,03,02,10,25,17.70
2011,03,02,10,26,24.20
2011,03,02,10,27,8.10
2011,03,02,10,28,20.90
2011,03,02,10,29,14.50
2011,03,02,10,30,12.90
2011,03,02,10,31,14.50
2011,03,02,10,32,6.40
2011,03,02,10,33,11.30
2011,03,02,10,34,9.60
2011,03,02,10,35,19.30
2011,03,02,10,36,17.70
2011,03,02,10,37,12.90
2011,03,02,10,38,11.30
2011,03,02,10,39,9.60
2011,03,02,10,40,11.30
2011,03,02,10,41,11.30
2011,03,02,10,42,9.60
2011,03,02,10,43,19.30
2011,03,02,10,44,19.30
2011,03,02,10,45,24.20
2011,03,02,10,46,24.20
2011,03,02,10,47,17.70
2011,03,02,10,48,17.70
2011,03,02,10,49,19.30
2011,03,02,10,50,9.60
2011,03,02,10,51,14.50
2011,03,02,10,52,17.70
2011,03,02,10,53,17.70
2011,03,02,10,54,17.70
2011,03,02,10,55,8.10
2011,03,02,10,56,16.10
2011,03,02,10,57,17.70
2011,03,02,10,58,6.40
2011,03,02,10,59,9.60
2011,03,02,11,00,8.10
2011,03,02,11,01,8.10
2011,03,02,11,02,16.10
2011,03,02,11,03,24.20
2011,03,02,11,04,11.30
2011,03,02,11,05,19.30
2011,03,02,11,06,9.60
2011,03,02,11,07,6.40
2011,03,02,11,08,9.60
2011,03,02,11,09,12.90
2011,03,02,11,10,11.30
2011,03,02,11,11,12.90
2011,03,02,11,12,19.30
2011,03,02,11,13,22.50
2011,03,02,11,14,9.60
2011,03,02,11,15,11.30
2011,03,02,11,16,12.90
2011,03,02,11,17,4.80
2011,03,02,11,18,8.10
2011,03,02,11,19,17.70
2011,03,02,11,20,9.60
2011,03,02,11,21,11.30
2011,03,02,11,22,14.50
2011,03,02,11,23,9.60
2011,03,02,11,24,22.50
2011,03,02,11,25,8.10
2011,03,02,11,26,27.40
2011,03,02,11,27,29.00
2011,03,02,11,28,32.20
2011,03,02,11,29,20.90
2011,03,02,11,30,12.90
2011,03,02,11,31,12.90
2011,03,02,11,32,9.60
2011,03,02,11,33,32.20
2011,03,02,11,34,19.30
2011,03,02,11,35,12.90
2011,03,02,11,36,8.10
2011,03,02,11,37,8.10
2011,03,02,11,38,24.20
2011,03,02,11,39,27.40
2011,03,02,11,40,11.30
2011,03,02,11,41,12.90
2011,03,02,11,42,16.10
2011,03,02,11,43,20.90
2011,03,02,11,44,6.40
2011,03,02,11,45,6.40
2011,03,02,11,46,9.60
2011,03,02,11,47,9.60
2011,03,02,11,48,9.60
2011,03,02,11,49,17.70
2011,03,02,11,50,14.50
2011,03,02,11,51,8.10
2011,03,02,11,52,11.30
2011,03,02,11,53,11.30
2011,03,02,11,54,11.30
2011,03,02,11,55,8.10
2011,03,02,11,56,11.30
2011,03,02,11,57,22.50
2011,03,02,11,58,12.90
2011,03,02,11,59,25.70
2011,03,02,12,00,17.70
2011,03,02,12,01,14.50
2011,03,02,12,02,11.30
2011,03,02,12,03,12.90
2011,03,02,12,04,8.10
2011,03,02,12,05,16.10
2011,03,02,12,06,9.60
2011,03,02,12,07,17.70
2011,03,02,12,08,9.60
2011,03,02,12,09,14.50
2011,03,02,12,10,12.90
2011,03,02,12,11,16.10
2011,03,02,12,12,9.60
2011,03,02,12,13,16.10
2011,03,02,12,14,11.30
2011,03,02,12,15,12.90
2011,03,02,12,16,8.10
2011,03,02,12,17,3.20
2011,03,02,12,18,8.10
2011,03,02,12,19,8.10
2011,03,02,12,20,9.60
2011,03,02,12,21,17.70
2011,03,02,12,22,6.40
2011,03,02,12,23,3.20
2011,03,02,12,24,12.90
2011,03,02,12,25,8.10
2011,03,02,12,26,11.30
2011,03,02,12,27,11.30
2011,03,02,12,28,8.10
2011,03,02,12,29,14.50
2011,03,02,12,30,11.30
2011,03,02,12,31,8.10
2011,03,02,12,32,6.40
2011,03,02,12,33,3.20
2011,03,02,12,34,8.10
2011,03,02,12,35,19.30
2011,03,02,12,36,25.70
2011,03,02,12,37,9.60
2011,03,02,12,38,14.50
2011,03,02,12,39,9.60
2011,03,02,12,40,9.60
2011,03,02,12,41,17.70
2011,03,02,12,42,9.60
2011,03,02,12,43,8.10
2011,03,02,12,44,11.30
2011,03,02,12,45,11.30
2011,03,02,12,46,6.40
2011,03,02,12,47,9.60
2011,03,02,12,48,9.60
2011,03,02,12,49,9.60
2011,03,02,12,50,6.40
2011,03,02,12,51,11.30
2011,03,02,12,52,17.70
2011,03,02,12,53,4.80
2011,03,02,12,54,3.20
2011,03,02,12,55,6.40
2011,03,02,12,56,4.80
2011,03,02,12,57,17.70
2011,03,02,12,58,8.10
2011,03,02,12,59,22.50
2011,03,02,13,00,11.30
2011,03,02,13,01,12.90
2011,03,02,13,02,12.90
2011,03,02,13,03,14.50
2011,03,02,13,04,11.30
2011,03,02,13,05,11.30
2011,03,02,13,06,16.10
2011,03,02,13,07,9.60
2011,03,02,13,08,8.10
2011,03,02,13,09,6.40
2011,03,02,13,10,16.10
2011,03,02,13,11,12.90
2011,03,02,13,12,6.40
2011,03,02,13,13,14.50
2011,03,02,13,14,29.00
2011,03,02,13,15,11.30
2011,03,02,13,16,25.70
2011,03,02,13,17,11.30
2011,03,02,13,18,14.50
2011,03,02,13,19,19.30
2011,03,02,13,20,17.70
2011,03,02,13,21,12.90
2011,03,02,13,22,20.90
2011,03,02,13,23,12.90
2011,03,02,13,24,6.40
2011,03,02,13,25,11.30
2011,03,02,13,26,9.60
2011,03,02,13,27,16.10
2011,03,02,13,28,8.10
2011,03,02,13,29,12.90
2011,03,02,13,30,11.30
2011,03,02,13,31,22.50
2011,03,02,13,32,27.40
2011,03,02,13,33,17.70
2011,03,02,13,34,16.10
2011,03,02,13,35,9.60
2011,03,02,13,36,9.60
2011,03,02,13,37,6.40
2011,03,02,13,38,16.10
2011,03,02,13,39,11.30
2011,03,02,13,40,17.70
2011,03,02,13,41,20.90
2011,03,02,13,42,8.10
2011,03,02,13,43,8.10
2011,03,02,13,44,14.50
2011,03,02,13,45,12.90
2011,03,02,13,46,8.10
2011,03,02,13,47,8.10
2011,03,02,13,48,16.10
2011,03,02,13,49,12.90
2011,03,02,13,50,11.30
2011,03,02,13,51,11.30
2011,03,02,13,52,11.30
2011,03,02,13,53,6.40
2011,03,02,13,54,9.60
2011,03,02,13,55,9.60
2011,03,02,13,56,4.80
2011,03,02,13,57,3.20
2011,03,02,13,58,9.60
2011,03,02,13,59,8.10
2011,03,02,14,00,11.30
2011,03,02,14,01,17.70
2011,03,02,14,02,9.60
2011,03,02,14,03,24.20
2011,03,02,14,04,11.30
2011,03,02,14,05,9.60
2011,03,02,14,06,19.30
2011,03,02,14,07,11.30
2011,03,02,14,08,8.10
2011,03,02,14,09,11.30
2011,03,02,14,10,17.70
2011,03,02,14,11,12.90
2011,03,02,14,12,25.70
2011,03,02,14,13,12.90
2011,03,02,14,14,14.50
2011,03,02,14,15,16.10
2011,03,02,14,16,17.70
2011,03,02,14,17,9.60
2011,03,02,14,18,11.30
2011,03,02,14,19,12.90
2011,03,02,14,20,20.90
2011,03,02,14,21,12.90
2011,03,02,14,25,11.30
2011,03,02,14,26,33.80
2011,03,02,14,27,16.10
2011,03,02,14,28,25.70
2011,03,02,14,29,16.10
2011,03,02,14,30,22.50
2011,03,02,14,31,12.90
2011,03,02,14,32,9.60
2011,03,02,14,33,24.20
2011,03,02,14,34,8.10
2011,03,02,14,35,17.70
2011,03,02,14,36,12.90
2011,03,02,14,37,12.90
2011,03,02,14,38,16.10
2011,03,02,14,39,17.70
2011,03,02,14,40,3.20
2011,03,02,14,41,8.10
2011,03,02,14,42,12.90
2011,03,02,14,43,6.40
2011,03,02,14,44,11.30
2011,03,02,14,45,12.90
2011,03,02,14,46,8.10
2011,03,02,14,47,12.90
2011,03,02,14,48,12.90
2011,03,02,14,49,3.20
2011,03,02,14,50,9.60
2011,03,02,14,51,9.60
2011,03,02,14,52,8.10
2011,03,02,14,53,11.30
2011,03,02,14,54,9.60
2011,03,02,14,55,6.40
2011,03,02,14,56,8.10
2011,03,02,14,57,8.10
2011,03,02,14,58,9.60
2011,03,02,14,59,12.90
2011,03,02,15,00,9.60
2011,03,02,15,01,9.60
2011,03,02,15,02,6.40
2011,03,02,15,03,4.80
2011,03,02,15,04,14.50
2011,03,02,15,05,16.10
2011,03,02,15,06,9.60
2011,03,02,15,07,11.30
2011,03,02,15,08,9.60
2011,03,02,15,09,6.40
2011,03,02,15,10,11.30
2011,03,02,15,11,11.30
2011,03,02,15,12,8.10
2011,03,02,15,13,20.90
2011,03,02,15,14,29.00
2011,03,02,15,15,12.90
2011,03,02,15,16,8.10
2011,03,02,15,17,20.90
2011,03,02,15,18,8.10
2011,03,02,15,19,12.90
2011,03,02,15,20,17.70
2011,03,02,15,21,14.50
2011,03,02,15,22,14.50
2011,03,02,15,23,12.90
2011,03,02,15,24,9.60
2011,03,02,15,25,11.30
2011,03,02,15,26,9.60
2011,03,02,15,27,16.10
2011,03,02,15,28,11.30
2011,03,02,15,29,9.60
2011,03,02,15,30,9.60
2011,03,02,15,31,11.30
2011,03,02,15,32,9.60
2011,03,02,15,33,12.90
2011,03,02,15,34,35.40
2011,03,02,15,35,9.60
2011,03,02,15,36,6.40
2011,03,02,15,37,8.10
2011,03,02,15,38,12.90
2011,03,02,15,39,11.30
2011,03,02,15,40,9.60
2011,03,02,15,41,11.30
2011,03,02,15,42,17.70
2011,03,02,15,43,11.30
2011,03,02,15,44,11.30
2011,03,02,15,45,6.40
2011,03,02,15,46,12.90
2011,03,02,15,47,19.30
2011,03,02,15,48,8.10
2011,03,02,15,49,11.30
2011,03,02,15,50,14.50
2011,03,02,15,51,4.80
2011,03,02,15,52,9.60
2011,03,02,15,53,6.40
2011,03,02,15,54,9.60
2011,03,02,15,55,11.30
2011,03,02,15,56,9.60
2011,03,02,15,57,25.70
2011,03,02,15,58,22.50
2011,03,02,15,59,24.20
2011,03,02,16,00,12.90
2011,03,02,16,01,14.50
2011,03,02,16,02,14.50
2011,03,02,16,03,11.30
2011,03,02,16,04,9.60
2011,03,02,16,05,12.90
2011,03,02,16,06,9.60
2011,03,02,16,07,11.30
2011,03,02,16,08,16.10
2011,03,02,16,09,12.90
2011,03,02,16,10,9.60
2011,03,02,16,11,8.10
2011,03,02,16,12,6.40
2011,03,02,16,13,8.10
2011,03,02,16,14,4.80
2011,03,02,16,15,6.40
2011,03,02,16,16,4.80
2011,03,02,16,17,4.80
2011,03,02,16,18,6.40
2011,03,02,16,19,8.10
2011,03,02,16,20,4.80
2011,03,02,16,21,4.80
2011,03,02,16,22,9.60
2011,03,02,16,23,4.80
2011,03,02,16,24,6.40
2011,03,02,16,25,6.40
2011,03,02,16,26,8.10
2011,03,02,16,27,8.10
2011,03,02,16,28,6.40
2011,03,02,16,29,6.40
2011,03,02,16,30,8.10
2011,03,02,16,31,6.40
2011,03,02,16,32,3.20
2011,03,02,16,33,6.40
2011,03,02,16,34,6.40
2011,03,02,16,35,3.20
2011,03,02,16,36,3.20
2011,03,02,16,37,3.20
2011,03,02,16,38,1.60
2011,03,02,16,39,4.80
2011,03,02,16,40,4.80
2011,03,02,16,41,6.40
2011,03,02,16,42,6.40
2011,03,02,16,43,3.20
2011,03,02,16,44,6.40
2011,03,02,16,45,3.20
2011,03,02,16,46,8.10
2011,03,02,16,47,4.80
2011,03,02,16,48,3.20
2011,03,02,16,49,3.20
2011,03,02,16,50,1.60
2011,03,02,16,51,3.20
2011,03,02,16,52,8.10
2011,03,02,16,53,6.40
2011,03,02,16,54,3.20
2011,03,02,16,55,1.60
2011,03,02,16,56,1.60
2011,03,02,16,57,3.20
2011,03,02,16,58,3.20
2011,03,02,16,59,1.60
2011,03,02,17,00,3.20
2011,03,02,17,01,4.80
2011,03,02,17,02,6.40
2011,03,02,17,03,8.10
2011,03,02,17,04,3.20
2011,03,02,17,05,3.20
2011,03,02,17,06,9.60
2011,03,02,17,07,8.10
2011,03,02,17,08,8.10
2011,03,02,17,09,9.60
2011,03,02,17,10,4.80
2011,03,02,17,11,1.60
2011,03,02,17,12,3.20
2011,03,02,17,13,4.80
2011,03,02,17,14,3.20
2011,03,02,17,15,4.80
2011,03,02,17,16,3.20
2011,03,02,17,17,4.80
2011,03,02,17,18,4.80
2011,03,02,17,19,4.80
2011,03,02,17,20,3.20
2011,03,02,17,21,3.20
2011,03,02,17,22,4.80
2011,03,02,17,23,3.20
2011,03,02,17,24,4.80
2011,03,02,17,25,6.40
2011,03,02,17,26,1.60
2011,03,02,17,27,4.80
2011,03,02,17,28,4.80
2011,03,02,17,29,9.60
2011,03,02,17,30,4.80
2011,03,02,17,31,3.20
2011,03,02,17,32,4.80
2011,03,02,17,33,3.20
2011,03,02,17,34,4.80
2011,03,02,17,35,6.40
2011,03,02,17,36,4.80
2011,03,02,17,37,1.60
2011,03,02,17,38,6.40
2011,03,02,17,39,6.40
2011,03,02,17,40,6.40
2011,03,02,17,41,3.20
2011,03,02,17,42,8.10
2011,03,02,17,43,6.40
2011,03,02,17,44,9.60
2011,03,02,17,45,3.20
2011,03,02,17,46,4.80